#datetime,building,power
2023-10-20T00:00:00,pth,3.60
2023-10-20T00:02:00,pth,2.40
2023-10-20T00:03:00,pth,2.40
2023-10-20T00:05:00,pth,2.40
2023-10-20T00:07:00,pth,2.40
2023-10-20T00:09:00,pth,2.40
2023-10-20T00:11:00,pth,3.60
2023-10-20T00:13:00,pth,2.40
2023-10-20T00:15:00,pth,2.40
2023-10-20T00:16:00,pth,1.20
2023-10-20T00:18:00,pth,2.40
2023-10-20T00:20:00,pth,3.60
2023-10-20T00:22:00,pth,2.40
2023-10-20T00:23:00,pth,1.20
2023-10-20T00:25:00,pth,3.60
2023-10-20T00:27:00,pth,2.40
2023-10-20T00:29:00,pth,2.40
2023-10-20T00:31:00,pth,3.60
2023-10-20T00:32:00,pth,1.20
2023-10-20T00:33:00,pth,1.20
2023-10-20T00:35:00,pth,2.40
2023-10-20T00:36:00,pth,1.20
2023-10-20T00:37:00,pth,1.20
2023-10-20T00:39:00,pth,3.60
2023-10-20T00:41:00,pth,2.40
2023-10-20T00:43:00,pth,3.60
2023-10-20T00:44:00,pth,3.60
2023-10-20T00:46:00,pth,3.60
2023-10-20T00:47:00,pth,1.20
2023-10-20T00:49:00,pth,4.80
2023-10-20T00:50:00,pth,2.40
2023-10-20T00:52:00,pth,2.40
2023-10-20T00:54:00,pth,3.60
2023-10-20T00:56:00,pth,2.40
2023-10-20T00:58:00,pth,2.40
2023-10-20T00:59:00,pth,1.20
2023-10-20T01:01:00,pth,2.40
2023-10-20T01:03:00,pth,2.40
2023-10-20T01:05:00,pth,3.60
2023-10-20T01:07:00,pth,2.40
2023-10-20T01:08:00,pth,2.40
2023-10-20T01:10:00,pth,2.40
2023-10-20T01:12:00,pth,3.60
2023-10-20T01:13:00,pth,1.20
2023-10-20T01:15:00,pth,2.40
2023-10-20T01:17:00,pth,2.40
2023-10-20T01:19:00,pth,3.60
2023-10-20T01:21:00,pth,2.40
2023-10-20T01:22:00,pth,1.20
2023-10-20T01:24:00,pth,3.60
2023-10-20T01:25:00,pth,1.20
2023-10-20T01:26:00,pth,1.20
2023-10-20T01:27:00,pth,2.40
2023-10-20T01:29:00,pth,2.40
2023-10-20T01:31:00,pth,2.40
2023-10-20T01:33:00,pth,2.40
2023-10-20T01:35:00,pth,2.40
2023-10-20T01:36:00,pth,1.20
2023-10-20T01:38:00,pth,3.60
2023-10-20T01:40:00,pth,2.40
2023-10-20T01:42:00,pth,2.40
2023-10-20T01:43:00,pth,1.20
2023-10-20T01:45:00,pth,2.40
2023-10-20T01:46:00,pth,1.20
2023-10-20T01:48:00,pth,2.40
2023-10-20T01:49:00,pth,1.20
2023-10-20T01:50:00,pth,1.20
2023-10-20T01:52:00,pth,2.40
2023-10-20T01:54:00,pth,2.40
2023-10-20T01:56:00,pth,2.40
2023-10-20T01:57:00,pth,1.20
2023-10-20T01:59:00,pth,4.80
2023-10-20T02:00:00,pth,2.40
2023-10-20T02:02:00,pth,3.60
2023-10-20T02:04:00,pth,2.40
2023-10-20T02:06:00,pth,2.40
2023-10-20T02:07:00,pth,1.20
2023-10-20T02:08:00,pth,1.20
2023-10-20T02:10:00,pth,2.40
2023-10-20T02:11:00,pth,1.20
2023-10-20T02:13:00,pth,1.20
2023-10-20T02:14:00,pth,1.20
2023-10-20T02:16:00,pth,4.80
2023-10-20T02:17:00,pth,1.20
2023-10-20T02:18:00,pth,1.20
2023-10-20T02:20:00,pth,2.40
2023-10-20T02:22:00,pth,3.60
2023-10-20T02:23:00,pth,1.20
2023-10-20T02:25:00,pth,2.40
2023-10-20T02:26:00,pth,1.20
2023-10-20T02:28:00,pth,2.40
2023-10-20T02:29:00,pth,1.20
2023-10-20T02:31:00,pth,2.40
2023-10-20T02:32:00,pth,1.20
2023-10-20T02:34:00,pth,2.40
2023-10-20T02:36:00,pth,2.40
2023-10-20T02:37:00,pth,1.20
2023-10-20T02:39:00,pth,2.40
2023-10-20T02:40:00,pth,1.20
2023-10-20T02:42:00,pth,1.20
2023-10-20T02:43:00,pth,1.20
2023-10-20T02:45:00,pth,2.40
2023-10-20T02:46:00,pth,1.20
2023-10-20T02:47:00,pth,1.20
2023-10-20T02:49:00,pth,2.40
2023-10-20T02:50:00,pth,1.20
2023-10-20T02:52:00,pth,2.40
2023-10-20T02:54:00,pth,2.40
2023-10-20T02:56:00,pth,3.60
2023-10-20T02:58:00,pth,3.60
2023-10-20T03:00:00,pth,4.80
2023-10-20T03:01:00,pth,1.20
2023-10-20T03:03:00,pth,2.40
2023-10-20T03:05:00,pth,2.40
2023-10-20T03:06:00,pth,1.20
2023-10-20T03:08:00,pth,2.40
2023-10-20T03:10:00,pth,2.40
2023-10-20T03:12:00,pth,2.40
2023-10-20T03:14:00,pth,2.40
2023-10-20T03:15:00,pth,1.20
2023-10-20T03:17:00,pth,2.40
2023-10-20T03:18:00,pth,1.20
2023-10-20T03:20:00,pth,2.40
2023-10-20T03:22:00,pth,2.40
2023-10-20T03:24:00,pth,1.20
2023-10-20T03:25:00,pth,1.20
2023-10-20T03:26:00,pth,1.20
2023-10-20T03:28:00,pth,2.40
2023-10-20T03:29:00,pth,1.20
2023-10-20T03:31:00,pth,2.40
2023-10-20T03:32:00,pth,1.20
2023-10-20T03:33:00,pth,1.20
2023-10-20T03:35:00,pth,2.40
2023-10-20T03:36:00,pth,1.20
2023-10-20T03:39:00,pth,2.40
2023-10-20T03:41:00,pth,2.40
2023-10-20T03:43:00,pth,2.40
2023-10-20T03:45:00,pth,2.40
2023-10-20T03:46:00,pth,1.20
2023-10-20T03:48:00,pth,2.40
2023-10-20T03:49:00,pth,1.20
2023-10-20T03:50:00,pth,1.20
2023-10-20T03:53:00,pth,2.40
2023-10-20T03:55:00,pth,2.40
2023-10-20T03:57:00,pth,2.40
2023-10-20T03:58:00,pth,1.20
2023-10-20T04:00:00,pth,1.20
2023-10-20T04:02:00,pth,2.40
2023-10-20T04:03:00,pth,1.20
2023-10-20T04:05:00,pth,2.40
2023-10-20T04:06:00,pth,1.20
2023-10-20T04:08:00,pth,2.40
2023-10-20T04:10:00,pth,1.20
2023-10-20T04:11:00,pth,1.20
2023-10-20T04:12:00,pth,1.20
2023-10-20T04:14:00,pth,2.40
2023-10-20T04:16:00,pth,2.40
2023-10-20T04:17:00,pth,1.20
2023-10-20T04:19:00,pth,2.40
2023-10-20T04:21:00,pth,4.80
2023-10-20T04:22:00,pth,2.40
2023-10-20T04:24:00,pth,3.60
2023-10-20T04:26:00,pth,3.60
2023-10-20T04:27:00,pth,1.20
2023-10-20T04:29:00,pth,1.20
2023-10-20T04:31:00,pth,3.60
2023-10-20T04:32:00,pth,1.20
2023-10-20T04:33:00,pth,1.20
2023-10-20T04:35:00,pth,2.40
2023-10-20T04:37:00,pth,2.40
2023-10-20T04:39:00,pth,2.40
2023-10-20T04:41:00,pth,1.20
2023-10-20T04:43:00,pth,2.40
2023-10-20T04:44:00,pth,1.20
2023-10-20T04:46:00,pth,2.40
2023-10-20T04:48:00,pth,2.40
2023-10-20T04:50:00,pth,2.40
2023-10-20T04:52:00,pth,2.40
2023-10-20T04:53:00,pth,1.20
2023-10-20T04:55:00,pth,2.40
2023-10-20T04:57:00,pth,3.60
2023-10-20T04:59:00,pth,2.40
2023-10-20T05:01:00,pth,2.40
2023-10-20T05:03:00,pth,2.40
2023-10-20T05:05:00,pth,2.40
2023-10-20T05:07:00,pth,2.40
2023-10-20T05:08:00,pth,1.20
2023-10-20T05:10:00,pth,2.40
2023-10-20T05:12:00,pth,2.40
2023-10-20T05:14:00,pth,2.40
2023-10-20T05:16:00,pth,2.40
2023-10-20T05:17:00,pth,1.20
2023-10-20T05:19:00,pth,2.40
2023-10-20T05:21:00,pth,2.40
2023-10-20T05:23:00,pth,2.40
2023-10-20T05:24:00,pth,1.20
2023-10-20T05:25:00,pth,1.20
2023-10-20T05:27:00,pth,2.40
2023-10-20T05:29:00,pth,2.40
2023-10-20T05:31:00,pth,2.40
2023-10-20T05:32:00,pth,1.20
2023-10-20T05:34:00,pth,2.40
2023-10-20T05:37:00,pth,2.40
2023-10-20T05:38:00,pth,2.40
2023-10-20T05:40:00,pth,3.60
2023-10-20T05:42:00,pth,4.80
2023-10-20T05:43:00,pth,1.20
2023-10-20T05:44:00,pth,1.20
2023-10-20T05:46:00,pth,2.40
2023-10-20T05:48:00,pth,2.40
2023-10-20T05:50:00,pth,2.40
2023-10-20T05:51:00,pth,1.20
2023-10-20T05:52:00,pth,1.20
2023-10-20T05:54:00,pth,1.20
2023-10-20T05:56:00,pth,2.40
2023-10-20T05:58:00,pth,2.40
2023-10-20T06:00:00,pth,1.20
2023-10-20T06:02:00,pth,2.40
2023-10-20T06:03:00,pth,1.20
2023-10-20T06:05:00,pth,2.40
2023-10-20T06:06:00,pth,1.20
2023-10-20T06:08:00,pth,2.40
2023-10-20T06:10:00,pth,2.40
2023-10-20T06:12:00,pth,2.40
2023-10-20T06:15:00,pth,2.40
2023-10-20T06:16:00,pth,1.20
2023-10-20T06:17:00,pth,1.20
2023-10-20T06:19:00,pth,1.20
2023-10-20T06:21:00,pth,2.40
2023-10-20T06:23:00,pth,2.40
2023-10-20T06:25:00,pth,1.20
2023-10-20T06:26:00,pth,1.20
2023-10-20T06:27:00,pth,1.20
2023-10-20T06:28:00,pth,1.20
2023-10-20T06:30:00,pth,1.20
2023-10-20T06:32:00,pth,2.40
2023-10-20T06:34:00,pth,2.40
2023-10-20T06:36:00,pth,1.20
2023-10-20T06:37:00,pth,1.20
2023-10-20T06:39:00,pth,2.40
2023-10-20T06:40:00,pth,1.20
2023-10-20T06:42:00,pth,1.20
2023-10-20T06:44:00,pth,2.40
2023-10-20T06:45:00,pth,1.20
2023-10-20T06:48:00,pth,2.40
2023-10-20T06:50:00,pth,3.60
2023-10-20T06:52:00,pth,3.60
2023-10-20T06:53:00,pth,2.40
2023-10-20T06:55:00,pth,3.60
2023-10-20T06:56:00,pth,1.20
2023-10-20T06:58:00,pth,1.20
2023-10-20T06:59:00,pth,1.20
2023-10-20T07:01:00,pth,2.40
2023-10-20T07:02:00,pth,1.20
2023-10-20T07:03:00,pth,1.20
2023-10-20T07:04:00,pth,1.20
2023-10-20T07:05:00,pth,1.20
2023-10-20T07:07:00,pth,2.40
2023-10-20T07:09:00,pth,1.20
2023-10-20T07:11:00,pth,2.40
2023-10-20T07:13:00,pth,2.40
2023-10-20T07:15:00,pth,3.60
2023-10-20T07:17:00,pth,2.40
2023-10-20T07:19:00,pth,2.40
2023-10-20T07:21:00,pth,2.40
2023-10-20T07:23:00,pth,2.40
2023-10-20T07:25:00,pth,1.20
2023-10-20T07:27:00,pth,2.40
2023-10-20T07:28:00,pth,1.20
2023-10-20T07:30:00,pth,2.40
2023-10-20T07:31:00,pth,1.20
2023-10-20T07:32:00,pth,1.20
2023-10-20T07:34:00,pth,2.40
2023-10-20T07:36:00,pth,2.40
2023-10-20T07:37:00,pth,1.20
2023-10-20T07:38:00,pth,1.20
2023-10-20T07:40:00,pth,2.40
2023-10-20T07:42:00,pth,2.40
2023-10-20T07:43:00,pth,2.40
2023-10-20T07:44:00,pth,1.20
2023-10-20T07:46:00,pth,1.20
2023-10-20T07:47:00,pth,1.20
2023-10-20T07:49:00,pth,2.40
2023-10-20T07:50:00,pth,1.20
2023-10-20T07:51:00,pth,1.20
2023-10-20T07:53:00,pth,2.40
2023-10-20T07:55:00,pth,2.40
2023-10-20T07:56:00,pth,1.20
2023-10-20T07:57:00,pth,1.20
2023-10-20T07:59:00,pth,2.40
2023-10-20T08:00:00,pth,2.40
2023-10-20T08:01:00,pth,2.40
2023-10-20T08:03:00,pth,4.80
2023-10-20T08:04:00,pth,2.40
2023-10-20T08:06:00,pth,3.60
2023-10-20T08:08:00,pth,2.40
2023-10-20T08:10:00,pth,1.20
2023-10-20T08:12:00,pth,2.40
2023-10-20T08:14:00,pth,2.40
2023-10-20T08:17:00,pth,2.40
2023-10-20T08:18:00,pth,1.20
2023-10-20T08:20:00,pth,2.40
2023-10-20T08:21:00,pth,1.20
2023-10-20T08:22:00,pth,1.20
2023-10-20T08:23:00,pth,2.40
2023-10-20T08:25:00,pth,4.80
2023-10-20T08:27:00,pth,4.80
2023-10-20T08:29:00,pth,2.40
2023-10-20T08:31:00,pth,2.40
2023-10-20T08:34:00,pth,2.40
2023-10-20T08:36:00,pth,2.40
2023-10-20T08:39:00,pth,2.40
2023-10-20T08:40:00,pth,1.20
2023-10-20T08:42:00,pth,1.20
2023-10-20T08:44:00,pth,2.40
2023-10-20T08:46:00,pth,2.40
2023-10-20T08:47:00,pth,1.20
2023-10-20T08:50:00,pth,2.40
2023-10-20T08:52:00,pth,1.20
2023-10-20T08:55:00,pth,2.40
2023-10-20T08:57:00,pth,1.20
2023-10-20T08:59:00,pth,1.20
2023-10-20T09:00:00,pth,1.20
2023-10-20T09:02:00,pth,1.20
2023-10-20T09:04:00,pth,2.40
2023-10-20T09:06:00,pth,1.20
2023-10-20T09:08:00,pth,3.60
2023-10-20T09:10:00,pth,3.60
2023-10-20T09:11:00,pth,1.20
2023-10-20T09:13:00,pth,3.60
2023-10-20T09:15:00,pth,2.40
2023-10-20T09:17:00,pth,1.20
2023-10-20T09:18:00,pth,1.20
2023-10-20T09:20:00,pth,1.20
2023-10-20T09:21:00,pth,1.20
2023-10-20T09:23:00,pth,2.40
2023-10-20T09:24:00,pth,1.20
2023-10-20T09:26:00,pth,1.20
2023-10-20T09:28:00,pth,2.40
2023-10-20T09:29:00,pth,1.20
2023-10-20T09:31:00,pth,2.40
2023-10-20T09:32:00,pth,1.20
2023-10-20T09:34:00,pth,2.40
2023-10-20T09:35:00,pth,1.20
2023-10-20T09:37:00,pth,1.20
2023-10-20T09:38:00,pth,1.20
2023-10-20T09:40:00,pth,2.40
2023-10-20T09:42:00,pth,2.40
2023-10-20T09:43:00,pth,1.20
2023-10-20T09:45:00,pth,1.20
2023-10-20T09:46:00,pth,1.20
2023-10-20T09:48:00,pth,2.40
2023-10-20T09:50:00,pth,4.80
2023-10-20T09:52:00,pth,2.40
2023-10-20T09:54:00,pth,1.20
2023-10-20T09:56:00,pth,2.40
2023-10-20T09:57:00,pth,1.20
2023-10-20T09:59:00,pth,1.20
2023-10-20T10:00:00,pth,1.20
2023-10-20T10:01:00,pth,1.20
2023-10-20T10:03:00,pth,1.20
2023-10-20T10:05:00,pth,2.40
2023-10-20T10:07:00,pth,1.20
2023-10-20T10:09:00,pth,2.40
2023-10-20T10:11:00,pth,1.20
2023-10-20T10:13:00,pth,1.20
2023-10-20T10:14:00,pth,1.20
2023-10-20T10:16:00,pth,1.20
2023-10-20T10:17:00,pth,1.20
2023-10-20T10:19:00,pth,1.20
2023-10-20T10:21:00,pth,2.40
2023-10-20T10:23:00,pth,2.40
2023-10-20T10:24:00,pth,1.20
2023-10-20T10:26:00,pth,3.60
2023-10-20T10:27:00,pth,1.20
2023-10-20T10:29:00,pth,2.40
2023-10-20T10:31:00,pth,2.40
2023-10-20T10:34:00,pth,1.20
2023-10-20T10:36:00,pth,1.20
2023-10-20T10:37:00,pth,1.20
2023-10-20T10:39:00,pth,1.20
2023-10-20T10:41:00,pth,1.20
2023-10-20T10:42:00,pth,1.20
2023-10-20T10:44:00,pth,1.20
2023-10-20T10:46:00,pth,2.40
2023-10-20T10:48:00,pth,1.20
2023-10-20T10:50:00,pth,2.40
2023-10-20T10:52:00,pth,1.20
2023-10-20T10:54:00,pth,2.40
2023-10-20T10:57:00,pth,2.40
2023-10-20T10:58:00,pth,1.20
2023-10-20T11:00:00,pth,2.40
2023-10-20T11:02:00,pth,2.40
2023-10-20T11:03:00,pth,1.20
2023-10-20T11:05:00,pth,3.60
2023-10-20T11:08:00,pth,2.40
2023-10-20T11:09:00,pth,1.20
2023-10-20T11:11:00,pth,1.20
2023-10-20T11:12:00,pth,1.20
2023-10-20T11:14:00,pth,2.40
2023-10-20T11:17:00,pth,2.40
2023-10-20T11:18:00,pth,1.20
2023-10-20T11:21:00,pth,2.40
2023-10-20T11:22:00,pth,1.20
2023-10-20T11:24:00,pth,1.20
2023-10-20T11:25:00,pth,1.20
2023-10-20T11:27:00,pth,1.20
2023-10-20T11:29:00,pth,2.40
2023-10-20T11:31:00,pth,2.40
2023-10-20T11:33:00,pth,2.40
2023-10-20T11:35:00,pth,1.20
2023-10-20T11:37:00,pth,2.40
2023-10-20T11:39:00,pth,2.40
2023-10-20T11:40:00,pth,1.20
2023-10-20T11:42:00,pth,1.20
2023-10-20T11:44:00,pth,2.40
2023-10-20T11:46:00,pth,2.40
2023-10-20T11:48:00,pth,2.40
2023-10-20T11:49:00,pth,1.20
2023-10-20T11:50:00,pth,1.20
2023-10-20T11:52:00,pth,2.40
2023-10-20T11:54:00,pth,1.20
2023-10-20T11:56:00,pth,2.40
2023-10-20T11:58:00,pth,3.60
2023-10-20T11:59:00,pth,1.20
2023-10-20T12:01:00,pth,2.40
2023-10-20T12:02:00,pth,1.20
2023-10-20T12:03:00,pth,1.20
2023-10-20T12:04:00,pth,2.40
2023-10-20T12:06:00,pth,2.40
2023-10-20T12:09:00,pth,2.40
2023-10-20T12:11:00,pth,2.40
2023-10-20T12:14:00,pth,2.40
2023-10-20T12:16:00,pth,2.40
2023-10-20T12:18:00,pth,2.40
2023-10-20T12:19:00,pth,1.20
2023-10-20T12:20:00,pth,1.20
2023-10-20T12:22:00,pth,3.60
2023-10-20T12:23:00,pth,1.20
2023-10-20T12:25:00,pth,3.60
2023-10-20T12:27:00,pth,2.40
2023-10-20T12:30:00,pth,2.40
2023-10-20T12:32:00,pth,2.40
2023-10-20T12:34:00,pth,3.60
2023-10-20T12:35:00,pth,1.20
2023-10-20T12:37:00,pth,2.40
2023-10-20T12:39:00,pth,1.20
2023-10-20T12:41:00,pth,1.20
2023-10-20T12:43:00,pth,1.20
2023-10-20T12:44:00,pth,1.20
2023-10-20T12:46:00,pth,1.20
2023-10-20T12:47:00,pth,1.20
2023-10-20T12:49:00,pth,1.20
2023-10-20T12:51:00,pth,1.20
2023-10-20T12:52:00,pth,1.20
2023-10-20T12:55:00,pth,2.40
2023-10-20T12:58:00,pth,1.20
2023-10-20T12:59:00,pth,1.20
2023-10-20T13:01:00,pth,1.20
2023-10-20T13:02:00,pth,1.20
2023-10-20T13:05:00,pth,2.40
2023-10-20T13:07:00,pth,1.20
2023-10-20T13:09:00,pth,1.20
2023-10-20T13:10:00,pth,1.20
2023-10-20T13:12:00,pth,1.20
2023-10-20T13:14:00,pth,2.40
2023-10-20T13:16:00,pth,1.20
2023-10-20T13:18:00,pth,1.20
2023-10-20T13:19:00,pth,1.20
2023-10-20T13:22:00,pth,2.40
2023-10-20T13:24:00,pth,2.40
2023-10-20T13:26:00,pth,1.20
2023-10-20T13:28:00,pth,2.40
2023-10-20T13:30:00,pth,2.40
2023-10-20T13:32:00,pth,2.40
2023-10-20T13:35:00,pth,2.40
2023-10-20T13:37:00,pth,2.40
2023-10-20T13:38:00,pth,1.20
2023-10-20T13:40:00,pth,2.40
2023-10-20T13:41:00,pth,1.20
2023-10-20T13:43:00,pth,2.40
2023-10-20T13:45:00,pth,2.40
2023-10-20T13:47:00,pth,2.40
2023-10-20T13:49:00,pth,3.60
2023-10-20T13:51:00,pth,1.20
2023-10-20T13:53:00,pth,2.40
2023-10-20T13:55:00,pth,1.20
2023-10-20T13:57:00,pth,3.60
2023-10-20T13:59:00,pth,2.40
2023-10-20T14:00:00,pth,1.20
2023-10-20T14:02:00,pth,1.20
2023-10-20T14:03:00,pth,1.20
2023-10-20T14:05:00,pth,1.20
2023-10-20T14:07:00,pth,1.20
2023-10-20T14:09:00,pth,2.40
2023-10-20T14:10:00,pth,1.20
2023-10-20T14:12:00,pth,2.40
2023-10-20T14:13:00,pth,1.20
2023-10-20T14:15:00,pth,2.40
2023-10-20T14:17:00,pth,1.20
2023-10-20T14:19:00,pth,2.40
2023-10-20T14:21:00,pth,2.40
2023-10-20T14:23:00,pth,2.40
2023-10-20T14:24:00,pth,1.20
2023-10-20T14:26:00,pth,9.60
2023-10-20T14:27:00,pth,6.00
2023-10-20T14:29:00,pth,13.20
2023-10-20T14:30:00,pth,7.20
2023-10-20T14:31:00,pth,6.00
2023-10-20T14:33:00,pth,14.40
2023-10-20T14:34:00,pth,7.20
2023-10-20T14:36:00,pth,13.20
2023-10-20T14:37:00,pth,6.00
2023-10-20T14:39:00,pth,13.20
2023-10-20T14:40:00,pth,7.20
2023-10-20T14:41:00,pth,6.00
2023-10-20T14:43:00,pth,14.40
2023-10-20T14:45:00,pth,13.20
2023-10-20T14:47:00,pth,13.20
2023-10-20T14:49:00,pth,12.00
2023-10-20T14:50:00,pth,7.20
2023-10-20T14:51:00,pth,7.20
2023-10-20T14:53:00,pth,13.20
2023-10-20T14:55:00,pth,14.40
2023-10-20T14:56:00,pth,8.40
2023-10-20T14:58:00,pth,14.40
2023-10-20T15:00:00,pth,13.20
2023-10-20T15:02:00,pth,13.20
2023-10-20T15:03:00,pth,7.20
2023-10-20T15:05:00,pth,4.80
2023-10-20T15:07:00,pth,12.00
2023-10-20T15:08:00,pth,7.20
2023-10-20T15:09:00,pth,4.80
2023-10-20T15:10:00,pth,2.40
2023-10-20T15:12:00,pth,8.40
2023-10-20T15:14:00,pth,12.00
2023-10-20T15:16:00,pth,2.40
2023-10-20T15:17:00,pth,6.00
2023-10-20T15:19:00,pth,12.00
2023-10-20T15:21:00,pth,2.40
2023-10-20T15:22:00,pth,4.80
2023-10-20T15:24:00,pth,12.00
2023-10-20T15:26:00,pth,1.20
2023-10-20T15:28:00,pth,2.40
2023-10-20T15:29:00,pth,1.20
2023-10-20T15:31:00,pth,1.20
2023-10-20T15:33:00,pth,2.40
2023-10-20T15:34:00,pth,1.20
2023-10-20T15:36:00,pth,1.20
2023-10-20T15:37:00,pth,1.20
2023-10-20T15:38:00,pth,1.20
2023-10-20T15:40:00,pth,1.20
2023-10-20T15:41:00,pth,1.20
2023-10-20T15:43:00,pth,2.40
2023-10-20T15:45:00,pth,2.40
2023-10-20T15:46:00,pth,1.20
2023-10-20T15:48:00,pth,1.20
2023-10-20T15:50:00,pth,2.40
2023-10-20T15:52:00,pth,1.20
2023-10-20T15:53:00,pth,1.20
2023-10-20T15:55:00,pth,2.40
2023-10-20T15:57:00,pth,2.40
2023-10-20T15:58:00,pth,1.20
2023-10-20T15:59:00,pth,1.20
2023-10-20T16:01:00,pth,1.20
2023-10-20T16:03:00,pth,2.40
2023-10-20T16:05:00,pth,1.20
2023-10-20T16:07:00,pth,2.40
2023-10-20T16:08:00,pth,1.20
2023-10-20T16:10:00,pth,2.40
2023-10-20T16:11:00,pth,3.60
2023-10-20T16:13:00,pth,3.60
2023-10-20T16:14:00,pth,1.20
2023-10-20T16:16:00,pth,4.80
2023-10-20T16:18:00,pth,2.40
2023-10-20T16:20:00,pth,2.40
2023-10-20T16:22:00,pth,3.60
2023-10-20T16:24:00,pth,3.60
2023-10-20T16:26:00,pth,2.40
2023-10-20T16:27:00,pth,1.20
2023-10-20T16:28:00,pth,2.40
2023-10-20T16:30:00,pth,2.40
2023-10-20T16:32:00,pth,2.40
2023-10-20T16:33:00,pth,1.20
2023-10-20T16:35:00,pth,3.60
2023-10-20T16:37:00,pth,2.40
2023-10-20T16:39:00,pth,3.60
2023-10-20T16:40:00,pth,1.20
2023-10-20T16:41:00,pth,2.40
2023-10-20T16:43:00,pth,2.40
2023-10-20T16:44:00,pth,1.20
2023-10-20T16:45:00,pth,1.20
2023-10-20T16:47:00,pth,3.60
2023-10-20T16:49:00,pth,4.80
2023-10-20T16:50:00,pth,2.40
2023-10-20T16:52:00,pth,4.80
2023-10-20T16:54:00,pth,2.40
2023-10-20T16:56:00,pth,2.40
2023-10-20T16:57:00,pth,2.40
2023-10-20T16:59:00,pth,2.40
2023-10-20T17:01:00,pth,2.40
2023-10-20T17:03:00,pth,2.40
2023-10-20T17:05:00,pth,3.60
2023-10-20T17:07:00,pth,2.40
2023-10-20T17:09:00,pth,2.40
2023-10-20T17:10:00,pth,2.40
2023-10-20T17:12:00,pth,2.40
2023-10-20T17:13:00,pth,1.20
2023-10-20T17:14:00,pth,1.20
2023-10-20T17:16:00,pth,2.40
2023-10-20T17:17:00,pth,1.20
2023-10-20T17:19:00,pth,3.60
2023-10-20T17:21:00,pth,2.40
2023-10-20T17:22:00,pth,1.20
2023-10-20T17:24:00,pth,2.40
2023-10-20T17:26:00,pth,2.40
2023-10-20T17:27:00,pth,1.20
2023-10-20T17:29:00,pth,2.40
2023-10-20T17:30:00,pth,1.20
2023-10-20T17:31:00,pth,1.20
2023-10-20T17:33:00,pth,2.40
2023-10-20T17:34:00,pth,1.20
2023-10-20T17:36:00,pth,2.40
2023-10-20T17:37:00,pth,1.20
2023-10-20T17:39:00,pth,2.40
2023-10-20T17:41:00,pth,2.40
2023-10-20T17:42:00,pth,1.20
2023-10-20T17:44:00,pth,2.40
2023-10-20T17:46:00,pth,2.40
2023-10-20T17:48:00,pth,2.40
2023-10-20T17:50:00,pth,2.40
2023-10-20T17:51:00,pth,1.20
2023-10-20T17:53:00,pth,2.40
2023-10-20T17:55:00,pth,2.40
2023-10-20T17:56:00,pth,1.20
2023-10-20T17:58:00,pth,3.60
2023-10-20T18:00:00,pth,7.20
2023-10-20T18:02:00,pth,14.40
2023-10-20T18:03:00,pth,7.20
2023-10-20T18:05:00,pth,13.20
2023-10-20T18:07:00,pth,14.40
2023-10-20T18:08:00,pth,6.00
2023-10-20T18:10:00,pth,14.40
2023-10-20T18:11:00,pth,6.00
2023-10-20T18:13:00,pth,14.40
2023-10-20T18:15:00,pth,13.20
2023-10-20T18:17:00,pth,13.20
2023-10-20T18:19:00,pth,14.40
2023-10-20T18:21:00,pth,13.20
2023-10-20T18:22:00,pth,6.00
2023-10-20T18:24:00,pth,14.40
2023-10-20T18:26:00,pth,13.20
2023-10-20T18:27:00,pth,7.20
2023-10-20T18:29:00,pth,13.20
2023-10-20T18:30:00,pth,6.00
2023-10-20T18:32:00,pth,6.00
2023-10-20T18:33:00,pth,6.00
2023-10-20T18:35:00,pth,14.40
2023-10-20T18:36:00,pth,1.20
2023-10-20T18:37:00,pth,2.40
2023-10-20T18:39:00,pth,12.00
2023-10-20T18:41:00,pth,6.00
2023-10-20T18:43:00,pth,8.40
2023-10-20T18:44:00,pth,7.20
2023-10-20T18:46:00,pth,6.00
2023-10-20T18:48:00,pth,9.60
2023-10-20T18:49:00,pth,7.20
2023-10-20T18:51:00,pth,4.80
2023-10-20T18:53:00,pth,9.60
2023-10-20T18:55:00,pth,9.60
2023-10-20T18:57:00,pth,4.80
2023-10-20T18:59:00,pth,8.40
2023-10-20T19:00:00,pth,1.20
2023-10-20T19:01:00,pth,1.20
2023-10-20T19:02:00,pth,1.20
2023-10-20T19:04:00,pth,2.40
2023-10-20T19:05:00,pth,1.20
2023-10-20T19:07:00,pth,2.40
2023-10-20T19:08:00,pth,1.20
2023-10-20T19:10:00,pth,3.60
2023-10-20T19:11:00,pth,1.20
2023-10-20T19:12:00,pth,1.20
2023-10-20T19:13:00,pth,2.40
2023-10-20T19:15:00,pth,2.40
2023-10-20T19:16:00,pth,1.20
2023-10-20T19:18:00,pth,2.40
2023-10-20T19:20:00,pth,2.40
2023-10-20T19:22:00,pth,1.20
2023-10-20T19:24:00,pth,2.40
2023-10-20T19:26:00,pth,2.40
2023-10-20T19:28:00,pth,1.20
2023-10-20T19:30:00,pth,2.40
2023-10-20T19:32:00,pth,4.80
2023-10-20T19:33:00,pth,2.40
2023-10-20T19:35:00,pth,3.60
2023-10-20T19:37:00,pth,2.40
2023-10-20T19:39:00,pth,2.40
2023-10-20T19:40:00,pth,1.20
2023-10-20T19:42:00,pth,2.40
2023-10-20T19:43:00,pth,1.20
2023-10-20T19:45:00,pth,3.60
2023-10-20T19:47:00,pth,2.40
2023-10-20T19:49:00,pth,2.40
2023-10-20T19:50:00,pth,2.40
2023-10-20T19:52:00,pth,2.40
2023-10-20T19:53:00,pth,2.40
2023-10-20T19:54:00,pth,2.40
2023-10-20T19:56:00,pth,2.40
2023-10-20T19:57:00,pth,1.20
2023-10-20T19:58:00,pth,2.40
2023-10-20T20:00:00,pth,2.40
2023-10-20T20:02:00,pth,2.40
2023-10-20T20:03:00,pth,1.20
2023-10-20T20:05:00,pth,3.60
2023-10-20T20:07:00,pth,2.40
2023-10-20T20:08:00,pth,2.40
2023-10-20T20:09:00,pth,1.20
2023-10-20T20:11:00,pth,3.60
2023-10-20T20:12:00,pth,2.40
2023-10-20T20:14:00,pth,2.40
2023-10-20T20:16:00,pth,3.60
2023-10-20T20:18:00,pth,3.60
2023-10-20T20:19:00,pth,1.20
2023-10-20T20:21:00,pth,3.60
2023-10-20T20:22:00,pth,1.20
2023-10-20T20:24:00,pth,2.40
2023-10-20T20:26:00,pth,2.40
2023-10-20T20:28:00,pth,2.40
2023-10-20T20:29:00,pth,2.40
2023-10-20T20:30:00,pth,1.20
2023-10-20T20:32:00,pth,2.40
2023-10-20T20:34:00,pth,3.60
2023-10-20T20:35:00,pth,1.20
2023-10-20T20:37:00,pth,2.40
2023-10-20T20:39:00,pth,1.20
2023-10-20T20:40:00,pth,1.20
2023-10-20T20:42:00,pth,2.40
2023-10-20T20:44:00,pth,2.40
2023-10-20T20:45:00,pth,1.20
2023-10-20T20:46:00,pth,1.20
2023-10-20T20:47:00,pth,1.20
2023-10-20T20:48:00,pth,2.40
2023-10-20T20:50:00,pth,3.60
2023-10-20T20:52:00,pth,3.60
2023-10-20T20:53:00,pth,1.20
2023-10-20T20:55:00,pth,2.40
2023-10-20T20:57:00,pth,1.20
2023-10-20T20:58:00,pth,1.20
2023-10-20T21:00:00,pth,2.40
2023-10-20T21:01:00,pth,1.20
2023-10-20T21:03:00,pth,2.40
2023-10-20T21:05:00,pth,2.40
2023-10-20T21:07:00,pth,2.40
2023-10-20T21:09:00,pth,2.40
2023-10-20T21:11:00,pth,3.60
2023-10-20T21:13:00,pth,13.20
2023-10-20T21:15:00,pth,14.40
2023-10-20T21:17:00,pth,13.20
2023-10-20T21:19:00,pth,14.40
2023-10-20T21:20:00,pth,6.00
2023-10-20T21:21:00,pth,7.20
2023-10-20T21:22:00,pth,7.20
2023-10-20T21:24:00,pth,13.20
2023-10-20T21:26:00,pth,14.40
2023-10-20T21:28:00,pth,7.20
2023-10-20T21:30:00,pth,14.40
2023-10-20T21:32:00,pth,7.20
2023-10-20T21:33:00,pth,6.00
2023-10-20T21:34:00,pth,6.00
2023-10-20T21:36:00,pth,6.00
2023-10-20T21:37:00,pth,6.00
2023-10-20T21:39:00,pth,9.60
2023-10-20T21:41:00,pth,9.60
2023-10-20T21:42:00,pth,6.00
2023-10-20T21:44:00,pth,6.00
2023-10-20T21:45:00,pth,6.00
2023-10-20T21:47:00,pth,4.80
2023-10-20T21:49:00,pth,13.20
2023-10-20T21:51:00,pth,7.20
2023-10-20T21:53:00,pth,10.80
2023-10-20T21:54:00,pth,2.40
2023-10-20T21:56:00,pth,12.00
2023-10-20T21:57:00,pth,1.20
2023-10-20T21:59:00,pth,8.40
2023-10-20T22:00:00,pth,4.80
2023-10-20T22:01:00,pth,1.20
2023-10-20T22:03:00,pth,12.00
2023-10-20T22:05:00,pth,4.80
2023-10-20T22:07:00,pth,10.80
2023-10-20T22:08:00,pth,2.40
2023-10-20T22:10:00,pth,12.00
2023-10-20T22:11:00,pth,2.40
2023-10-20T22:13:00,pth,3.60
2023-10-20T22:14:00,pth,1.20
2023-10-20T22:16:00,pth,3.60
2023-10-20T22:17:00,pth,1.20
2023-10-20T22:19:00,pth,3.60
2023-10-20T22:21:00,pth,2.40
2023-10-20T22:23:00,pth,3.60
2023-10-20T22:24:00,pth,1.20
2023-10-20T22:25:00,pth,1.20
2023-10-20T22:27:00,pth,7.20
2023-10-20T22:28:00,pth,3.60
2023-10-20T22:29:00,pth,3.60
2023-10-20T22:31:00,pth,7.20
2023-10-20T22:33:00,pth,7.20
2023-10-20T22:34:00,pth,2.40
2023-10-20T22:36:00,pth,6.00
2023-10-20T22:37:00,pth,2.40
2023-10-20T22:39:00,pth,3.60
2023-10-20T22:41:00,pth,3.60
2023-10-20T22:42:00,pth,1.20
2023-10-20T22:44:00,pth,3.60
2023-10-20T22:46:00,pth,2.40
2023-10-20T22:48:00,pth,3.60
2023-10-20T22:50:00,pth,3.60
2023-10-20T22:52:00,pth,3.60
2023-10-20T22:54:00,pth,2.40
2023-10-20T22:56:00,pth,3.60
2023-10-20T22:58:00,pth,2.40
2023-10-20T22:59:00,pth,2.40
2023-10-20T23:00:00,pth,1.20
2023-10-20T23:02:00,pth,2.40
2023-10-20T23:03:00,pth,1.20
2023-10-20T23:05:00,pth,2.40